Time,TemperatureF,DewpointF,PressureIn,WindDirection,WindDirectionDegrees,WindSpeedMPH,WindSpeedGustMPH,Humidity,HourlyPrecipIn,Conditions,Clouds,dailyrainin,SoftwareType,DateUTC
2012-11-08 00:00:00,34.9,31.4,30.42,NE,34,0.0,0.0,87,0.00,,,0.00,VWS V13.01,2012-11-08 06:00:00,
2012-11-08 00:05:00,35.0,31.3,30.42,NE,34,0.0,0.0,86,0.00,,,0.00,VWS V13.01,2012-11-08 06:05:00,
2012-11-08 00:10:00,35.6,31.8,30.42,NE,34,0.0,0.0,86,0.00,,,0.00,VWS V13.01,2012-11-08 06:10:00,
2012-11-08 00:15:00,36.1,32.0,30.42,NE,35,0.0,0.0,85,0.00,,,0.00,VWS V13.01,2012-11-08 06:15:00,
2012-11-08 00:20:00,36.5,30.9,30.42,NE,35,0.0,0.0,80,0.00,,,0.00,VWS V13.01,2012-11-08 06:20:00,
2012-11-08 00:25:00,36.8,31.0,30.42,NE,35,0.0,0.0,79,0.00,,,0.00,VWS V13.01,2012-11-08 06:25:00,
2012-11-08 00:30:00,37.0,30.8,30.42,NE,35,0.0,0.0,78,0.00,,,0.00,VWS V13.01,2012-11-08 06:30:00,
2012-11-08 00:35:00,37.0,30.5,30.42,NE,35,0.0,0.0,77,0.00,,,0.00,VWS V13.01,2012-11-08 06:35:00,
2012-11-08 00:40:00,36.7,30.1,30.42,NE,35,0.0,0.0,77,0.00,,,0.00,VWS V13.01,2012-11-08 06:40:00,
2012-11-08 00:45:00,36.3,30.1,30.42,NE,35,0.0,0.0,78,0.00,,,0.00,VWS V13.01,2012-11-08 06:45:00,
2012-11-08 00:50:00,35.9,30.1,30.42,NE,35,0.0,0.0,79,0.00,,,0.00,VWS V13.01,2012-11-08 06:50:00,
2012-11-08 00:55:00,35.6,30.0,30.42,NE,35,0.0,0.0,80,0.00,,,0.00,VWS V13.01,2012-11-08 06:55:00,
2012-11-08 01:00:00,35.4,30.5,30.42,NE,35,0.0,0.0,82,0.00,,,0.00,VWS V13.01,2012-11-08 07:00:00,
2012-11-08 01:05:00,35.4,30.5,30.42,NE,35,0.0,0.0,82,0.00,,,0.00,VWS V13.01,2012-11-08 07:05:00,
2012-11-08 01:10:00,35.4,30.5,30.42,NE,35,0.0,0.0,82,0.00,,,0.00,VWS V13.01,2012-11-08 07:10:00,
2012-11-08 01:15:00,35.6,30.9,30.42,NE,35,0.0,0.0,83,0.00,,,0.00,VWS V13.01,2012-11-08 07:15:00,
2012-11-08 01:20:00,36.1,31.5,30.42,NE,35,0.0,0.0,83,0.00,,,0.00,VWS V13.01,2012-11-08 07:20:00,
2012-11-08 01:25:00,36.5,30.9,30.42,NE,35,0.0,0.0,80,0.00,,,0.00,VWS V13.01,2012-11-08 07:25:00,
2012-11-08 01:30:00,36.1,30.2,30.42,NE,35,0.0,0.0,79,0.00,,,0.00,VWS V13.01,2012-11-08 07:30:00,
2012-11-08 01:35:00,35.6,30.0,30.42,NE,35,0.0,0.0,80,0.00,,,0.00,VWS V13.01,2012-11-08 07:35:00,
2012-11-08 01:40:00,35.2,30.6,30.42,NE,35,0.0,0.0,83,0.00,,,0.00,VWS V13.01,2012-11-08 07:40:00,
2012-11-08 01:45:00,34.9,30.8,30.42,NE,47,0.0,0.0,85,0.00,,,0.00,VWS V13.01,2012-11-08 07:45:00,
2012-11-08 01:50:00,34.9,31.1,30.42,NE,47,0.0,0.0,86,0.00,,,0.00,VWS V13.01,2012-11-08 07:50:00,
2012-11-08 01:55:00,34.9,31.4,30.42,NE,47,0.0,0.0,87,0.00,,,0.00,VWS V13.01,2012-11-08 07:55:00,
2012-11-08 02:00:00,35.0,31.9,30.42,NE,47,0.0,0.0,88,0.00,,,0.00,VWS V13.01,2012-11-08 08:00:00,
2012-11-08 02:05:00,35.0,31.6,30.42,NE,47,0.0,0.0,87,0.00,,,0.00,VWS V13.01,2012-11-08 08:05:00,
2012-11-08 02:10:00,35.2,31.8,30.42,NE,47,0.0,0.0,87,0.00,,,0.00,VWS V13.01,2012-11-08 08:10:00,
2012-11-08 02:15:00,35.4,31.6,30.42,NE,47,0.0,0.0,86,0.00,,,0.00,VWS V13.01,2012-11-08 08:15:00,
2012-11-08 02:20:00,35.6,31.8,30.42,NE,47,0.0,0.0,86,0.00,,,0.00,VWS V13.01,2012-11-08 08:20:00,
2012-11-08 02:25:00,35.6,31.5,30.42,NE,47,0.0,0.0,85,0.00,,,0.00,VWS V13.01,2012-11-08 08:25:00,
2012-11-08 02:30:00,35.9,31.6,30.45,NE,37,0.0,0.0,84,0.00,,,0.00,VWS V13.01,2012-11-08 08:30:00,
2012-11-08 02:35:00,36.1,31.5,30.45,NE,37,0.0,0.0,83,0.00,,,0.00,VWS V13.01,2012-11-08 08:35:00,
2012-11-08 02:40:00,36.3,31.3,30.45,NE,37,0.0,0.0,82,0.00,,,0.00,VWS V13.01,2012-11-08 08:40:00,
2012-11-08 02:45:00,36.5,31.2,30.42,NE,37,0.0,0.0,81,0.00,,,0.00,VWS V13.01,2012-11-08 08:45:00,
2012-11-08 02:50:00,36.7,31.4,30.42,NE,37,0.0,0.0,81,0.00,,,0.00,VWS V13.01,2012-11-08 08:50:00,
2012-11-08 02:55:00,36.8,31.0,30.42,NE,37,0.0,0.0,79,0.00,,,0.00,VWS V13.01,2012-11-08 08:55:00,
2012-11-08 03:00:00,36.7,30.5,30.42,NE,37,0.0,0.0,78,0.00,,,0.00,VWS V13.01,2012-11-08 09:00:00,
2012-11-08 03:05:00,36.7,30.8,30.42,NNE,23,0.0,0.0,79,0.00,,,0.00,VWS V13.01,2012-11-08 09:05:00,
2012-11-08 03:10:00,36.7,30.8,30.42,NNE,33,0.0,0.0,79,0.00,,,0.00,VWS V13.01,2012-11-08 09:10:00,
2012-11-08 03:15:00,36.7,30.5,30.42,NNE,33,0.0,0.0,78,0.00,,,0.00,VWS V13.01,2012-11-08 09:15:00,
2012-11-08 03:20:00,36.5,30.6,30.42,NNE,32,0.0,0.0,79,0.00,,,0.00,VWS V13.01,2012-11-08 09:20:00,
2012-11-08 03:25:00,36.3,30.4,30.42,NE,41,0.0,0.0,79,0.00,,,0.00,VWS V13.01,2012-11-08 09:25:00,
2012-11-08 03:30:00,36.1,30.6,30.45,NE,41,0.0,0.0,80,0.00,,,0.00,VWS V13.01,2012-11-08 09:30:00,
2012-11-08 03:34:00,35.9,30.7,30.45,NE,41,0.0,0.0,81,0.00,,,0.00,VWS V13.01,2012-11-08 09:34:00,
2012-11-08 03:39:00,35.8,30.8,30.45,NE,41,0.0,0.0,82,0.00,,,0.00,VWS V13.01,2012-11-08 09:39:00,
2012-11-08 03:44:00,35.6,30.9,30.45,NE,41,0.0,0.0,83,0.00,,,0.00,VWS V13.01,2012-11-08 09:44:00,
2012-11-08 03:49:00,35.2,30.6,30.45,NE,41,0.0,0.0,83,0.00,,,0.00,VWS V13.01,2012-11-08 09:49:00,
2012-11-08 03:54:00,34.7,30.6,30.45,NNE,33,0.0,0.0,85,0.00,,,0.00,VWS V13.01,2012-11-08 09:54:00,
2012-11-08 03:59:00,34.7,31.8,30.42,NNE,22,0.0,0.0,89,0.00,,,0.00,VWS V13.01,2012-11-08 09:59:00,
2012-11-08 04:04:00,34.7,31.8,30.42,North,360,0.0,0.0,89,0.00,,,0.00,VWS V13.01,2012-11-08 10:04:00,
2012-11-08 04:09:00,34.7,31.5,30.42,NNE,28,0.0,0.0,88,0.00,,,0.00,VWS V13.01,2012-11-08 10:09:00,
2012-11-08 04:14:00,34.7,31.2,30.45,NNE,27,0.0,0.0,87,0.00,,,0.00,VWS V13.01,2012-11-08 10:14:00,
2012-11-08 04:19:00,34.7,31.2,30.45,NNE,31,0.0,0.0,87,0.00,,,0.00,VWS V13.01,2012-11-08 10:19:00,
2012-11-08 04:24:00,34.7,31.2,30.45,NNE,31,0.0,0.0,87,0.00,,,0.00,VWS V13.01,2012-11-08 10:24:00,
2012-11-08 04:29:00,34.5,31.0,30.45,NNE,31,0.0,0.0,87,0.00,,,0.00,VWS V13.01,2012-11-08 10:29:00,
2012-11-08 04:34:00,34.5,31.0,30.45,NNE,31,0.0,0.0,87,0.00,,,0.00,VWS V13.01,2012-11-08 10:34:00,
2012-11-08 04:39:00,34.7,31.5,30.45,NNE,31,0.0,0.0,88,0.00,,,0.00,VWS V13.01,2012-11-08 10:39:00,
2012-11-08 04:44:00,34.7,31.5,30.45,NNE,31,0.0,0.0,88,0.00,,,0.00,VWS V13.01,2012-11-08 10:44:00,
2012-11-08 04:49:00,34.7,31.2,30.45,NNE,31,0.0,0.0,87,0.00,,,0.00,VWS V13.01,2012-11-08 10:49:00,
2012-11-08 04:54:00,34.9,31.4,30.45,NNE,31,0.0,0.0,87,0.00,,,0.00,VWS V13.01,2012-11-08 10:54:00,
2012-11-08 04:59:00,35.4,31.1,30.45,NNE,28,2.7,2.7,84,0.00,,,0.00,VWS V13.01,2012-11-08 10:59:00,
2012-11-08 05:04:00,36.1,30.6,30.45,NNE,28,0.0,0.0,80,0.00,,,0.00,VWS V13.01,2012-11-08 11:04:00,
2012-11-08 05:09:00,36.5,30.9,30.45,NE,52,0.0,0.0,80,0.00,,,0.00,VWS V13.01,2012-11-08 11:09:00,
2012-11-08 05:14:00,36.7,30.5,30.45,NE,41,0.0,0.0,78,0.00,,,0.00,VWS V13.01,2012-11-08 11:14:00,
2012-11-08 05:19:00,36.7,30.5,30.45,NE,40,3.1,3.1,78,0.00,,,0.00,VWS V13.01,2012-11-08 11:19:00,
2012-11-08 05:24:00,36.8,30.3,30.45,NE,46,0.0,0.0,77,0.00,,,0.00,VWS V13.01,2012-11-08 11:24:00,
2012-11-08 05:29:00,37.2,30.7,30.45,NE,46,0.0,0.0,77,0.00,,,0.00,VWS V13.01,2012-11-08 11:29:00,
2012-11-08 05:34:00,37.2,30.4,30.45,NE,46,0.0,0.0,76,0.00,,,0.00,VWS V13.01,2012-11-08 11:34:00,
2012-11-08 05:39:00,37.0,30.5,30.45,NE,46,0.0,0.0,77,0.00,,,0.00,VWS V13.01,2012-11-08 11:39:00,
2012-11-08 05:44:00,37.0,30.5,30.45,NE,46,0.0,0.0,77,0.00,,,0.00,VWS V13.01,2012-11-08 11:44:00,
2012-11-08 05:49:00,36.8,30.3,30.45,SSE,147,0.0,0.0,77,0.00,,,0.00,VWS V13.01,2012-11-08 11:49:00,
2012-11-08 05:54:00,36.8,30.3,30.45,SSE,147,0.0,0.0,77,0.00,,,0.00,VWS V13.01,2012-11-08 11:54:00,
2012-11-08 05:59:00,36.8,30.3,30.45,NE,44,0.0,2.2,77,0.00,,,0.00,VWS V13.01,2012-11-08 11:59:00,
2012-11-08 06:04:00,36.7,30.1,30.45,NE,44,0.0,0.0,77,0.00,,,0.00,VWS V13.01,2012-11-08 12:04:00,
2012-11-08 06:09:00,36.7,30.1,30.45,NE,37,0.0,0.0,77,0.00,,,0.00,VWS V13.01,2012-11-08 12:09:00,
2012-11-08 06:14:00,36.5,30.0,30.45,NE,37,0.0,0.0,77,0.00,,,0.00,VWS V13.01,2012-11-08 12:14:00,
2012-11-08 06:19:00,36.5,30.3,30.45,NE,37,0.0,0.0,78,0.00,,,0.00,VWS V13.01,2012-11-08 12:19:00,
2012-11-08 06:24:00,36.3,30.4,30.45,North,351,0.0,0.0,79,0.00,,,0.00,VWS V13.01,2012-11-08 12:24:00,
2012-11-08 06:29:00,36.1,30.6,30.42,NNE,29,3.1,3.1,80,0.00,,,0.00,VWS V13.01,2012-11-08 12:29:00,
2012-11-08 06:34:00,36.3,30.7,30.42,NE,36,0.0,0.0,80,0.00,,,0.00,VWS V13.01,2012-11-08 12:34:00,
2012-11-08 06:39:00,36.5,30.9,30.42,NE,36,0.0,0.0,80,0.00,,,0.00,VWS V13.01,2012-11-08 12:39:00,
2012-11-08 06:44:00,36.7,31.1,30.42,NE,36,0.0,0.0,80,0.00,,,0.00,VWS V13.01,2012-11-08 12:44:00,
2012-11-08 06:49:00,37.0,31.1,30.45,NE,36,0.0,0.0,79,0.00,,,0.00,VWS V13.01,2012-11-08 12:49:00,
2012-11-08 06:54:00,37.2,31.0,30.45,NE,36,0.0,0.0,78,0.00,,,0.00,VWS V13.01,2012-11-08 12:54:00,
2012-11-08 06:59:00,37.2,30.7,30.45,NNE,33,0.0,0.0,77,0.00,,,0.00,VWS V13.01,2012-11-08 12:59:00,
2012-11-08 07:04:00,37.4,30.8,30.45,NE,39,0.0,0.0,77,0.00,,,0.00,VWS V13.01,2012-11-08 13:04:00,
2012-11-08 07:09:00,37.9,31.0,30.45,NE,40,0.0,0.0,76,0.00,,,0.00,VWS V13.01,2012-11-08 13:09:00,
2012-11-08 07:14:00,38.6,31.1,30.45,NE,38,0.0,2.2,74,0.00,,,0.00,VWS V13.01,2012-11-08 13:14:00,
2012-11-08 07:19:00,39.4,31.1,30.45,NE,40,2.7,3.6,72,0.00,,,0.00,VWS V13.01,2012-11-08 13:19:00,
2012-11-08 07:24:00,40.1,31.5,30.45,NE,38,2.7,2.7,71,0.00,,,0.00,VWS V13.01,2012-11-08 13:24:00,
2012-11-08 07:29:00,40.6,32.0,30.45,NE,38,0.0,0.0,71,0.00,,,0.00,VWS V13.01,2012-11-08 13:29:00,
2012-11-08 07:34:00,41.3,32.0,30.47,NE,47,2.7,3.6,69,0.00,,,0.00,VWS V13.01,2012-11-08 13:34:00,
2012-11-08 07:39:00,42.1,32.6,30.47,ENE,57,0.0,0.0,69,0.00,,,0.00,VWS V13.01,2012-11-08 13:39:00,
2012-11-08 07:44:00,42.6,32.8,30.47,ENE,59,0.0,3.6,68,0.00,,,0.00,VWS V13.01,2012-11-08 13:44:00,
2012-11-08 07:49:00,43.1,32.9,30.47,NE,49,2.7,2.7,67,0.00,,,0.00,VWS V13.01,2012-11-08 13:49:00,
2012-11-08 07:54:00,43.7,32.7,30.47,NE,43,3.6,5.4,65,0.00,,,0.00,VWS V13.01,2012-11-08 13:54:00,
2012-11-08 07:59:00,44.0,32.7,30.47,ENE,68,3.6,5.4,64,0.00,,,0.00,VWS V13.01,2012-11-08 13:59:00,
2012-11-08 08:04:00,44.4,33.0,30.47,NNE,29,3.6,3.6,64,0.00,,,0.00,VWS V13.01,2012-11-08 14:04:00,
2012-11-08 08:09:00,44.6,32.8,30.47,NE,42,3.1,3.1,63,0.00,,,0.00,VWS V13.01,2012-11-08 14:09:00,
2012-11-08 08:14:00,45.1,32.9,30.47,NE,54,5.4,5.4,62,0.00,,,0.00,VWS V13.01,2012-11-08 14:14:00,
2012-11-08 08:19:00,45.5,33.6,30.47,ENE,73,3.1,4.0,63,0.00,,,0.00,VWS V13.01,2012-11-08 14:19:00,
2012-11-08 08:24:00,45.8,33.2,30.47,ENE,58,3.6,5.8,61,0.00,,,0.00,VWS V13.01,2012-11-08 14:24:00,
2012-11-08 08:29:00,46.2,33.1,30.47,NNE,15,4.9,4.9,60,0.00,,,0.00,VWS V13.01,2012-11-08 14:29:00,
2012-11-08 08:34:00,46.2,33.1,30.47,NE,41,3.1,4.0,60,0.00,,,0.00,VWS V13.01,2012-11-08 14:34:00,
2012-11-08 08:39:00,46.6,33.0,30.47,NE,55,6.3,7.2,59,0.00,,,0.00,VWS V13.01,2012-11-08 14:39:00,
2012-11-08 08:44:00,46.7,33.6,30.47,ESE,114,3.1,3.6,60,0.00,,,0.00,VWS V13.01,2012-11-08 14:44:00,
2012-11-08 08:49:00,47.6,34.0,30.47,NNE,23,3.6,3.6,59,0.00,,,0.00,VWS V13.01,2012-11-08 14:49:00,
2012-11-08 08:54:00,47.8,34.2,30.47,NNE,18,3.6,4.0,59,0.00,,,0.00,VWS V13.01,2012-11-08 14:54:00,
2012-11-08 08:59:00,48.0,33.9,30.47,ENE,65,3.6,3.6,58,0.00,,,0.00,VWS V13.01,2012-11-08 14:59:00,
2012-11-08 09:03:00,48.4,33.8,30.47,NNE,29,6.3,6.3,57,0.00,,,0.00,VWS V13.01,2012-11-08 15:03:00,
2012-11-08 09:08:00,48.7,34.6,30.47,NE,40,3.6,3.6,58,0.00,,,0.00,VWS V13.01,2012-11-08 15:08:00,
2012-11-08 09:13:00,49.3,34.7,30.47,NE,56,7.6,7.6,57,0.00,,,0.00,VWS V13.01,2012-11-08 15:13:00,
2012-11-08 09:18:00,49.3,34.7,30.47,East,93,5.4,5.4,57,0.00,,,0.00,VWS V13.01,2012-11-08 15:18:00,
2012-11-08 09:23:00,49.8,34.8,30.47,ENE,64,2.7,2.7,56,0.00,,,0.00,VWS V13.01,2012-11-08 15:23:00,
2012-11-08 09:28:00,50.5,35.4,30.47,NE,48,3.6,3.6,56,0.00,,,0.00,VWS V13.01,2012-11-08 15:28:00,
2012-11-08 09:33:00,50.3,35.3,30.47,NE,56,4.0,4.9,56,0.00,,,0.00,VWS V13.01,2012-11-08 15:33:00,
2012-11-08 09:38:00,50.7,35.6,30.47,NNE,33,5.4,6.3,56,0.00,,,0.00,VWS V13.01,2012-11-08 15:38:00,
2012-11-08 09:43:00,50.7,35.6,30.47,NNE,19,6.3,6.3,56,0.00,,,0.00,VWS V13.01,2012-11-08 15:43:00,
2012-11-08 09:48:00,50.9,35.8,30.47,ESE,116,4.9,4.9,56,0.00,,,0.00,VWS V13.01,2012-11-08 15:48:00,
2012-11-08 09:53:00,51.2,35.6,30.47,SE,131,4.0,4.0,55,0.00,,,0.00,VWS V13.01,2012-11-08 15:53:00,
2012-11-08 09:58:00,52.1,35.5,30.47,East,80,7.6,7.6,53,0.00,,,0.00,VWS V13.01,2012-11-08 15:58:00,
2012-11-08 10:03:00,52.1,35.5,30.47,ENE,69,4.9,5.8,53,0.00,,,0.00,VWS V13.01,2012-11-08 16:03:00,
2012-11-08 10:08:00,52.1,35.1,30.47,ESE,107,3.1,3.6,52,0.00,,,0.00,VWS V13.01,2012-11-08 16:08:00,
2012-11-08 10:13:00,52.3,35.2,30.47,NE,35,4.9,5.4,52,0.00,,,0.00,VWS V13.01,2012-11-08 16:13:00,
2012-11-08 10:18:00,52.0,35.4,30.45,East,83,3.6,3.6,53,0.00,,,0.00,VWS V13.01,2012-11-08 16:18:00,
2012-11-08 10:23:00,53.9,36.2,30.45,East,98,3.6,4.9,51,0.00,,,0.00,VWS V13.01,2012-11-08 16:23:00,
2012-11-08 10:28:00,54.1,36.4,30.45,NE,41,4.0,4.0,51,0.00,,,0.00,VWS V13.01,2012-11-08 16:28:00,
2012-11-08 10:33:00,54.3,36.1,30.45,East,80,4.0,4.0,50,0.00,,,0.00,VWS V13.01,2012-11-08 16:33:00,
2012-11-08 10:38:00,54.7,36.9,30.45,ESE,107,5.8,5.8,51,0.00,,,0.00,VWS V13.01,2012-11-08 16:38:00,
2012-11-08 10:43:00,54.7,35.9,30.45,ENE,71,4.0,5.8,49,0.00,,,0.00,VWS V13.01,2012-11-08 16:43:00,
2012-11-08 10:48:00,54.7,36.4,30.45,East,87,3.1,5.4,50,0.00,,,0.00,VWS V13.01,2012-11-08 16:48:00,
2012-11-08 10:53:00,55.4,36.6,30.45,NE,46,3.1,3.6,49,0.00,,,0.00,VWS V13.01,2012-11-08 16:53:00,
2012-11-08 10:58:00,55.4,36.0,30.45,East,82,8.1,8.1,48,0.00,,,0.00,VWS V13.01,2012-11-08 16:58:00,
2012-11-08 11:03:00,55.0,36.2,30.45,ENE,76,6.3,6.3,49,0.00,,,0.00,VWS V13.01,2012-11-08 17:03:00,
2012-11-08 11:08:00,55.6,36.2,30.45,ENE,64,5.4,8.3,48,0.00,,,0.00,VWS V13.01,2012-11-08 17:08:00,
2012-11-08 11:13:00,56.1,36.7,30.45,ENE,69,5.4,8.3,48,0.00,,,0.00,VWS V13.01,2012-11-08 17:13:00,
2012-11-08 11:18:00,56.5,37.0,30.42,ENE,69,3.6,3.6,48,0.00,,,0.00,VWS V13.01,2012-11-08 17:18:00,
2012-11-08 11:23:00,56.5,36.5,30.42,SE,132,6.3,6.3,47,0.00,,,0.00,VWS V13.01,2012-11-08 17:23:00,
2012-11-08 11:28:00,56.8,36.8,30.42,ENE,61,3.6,3.6,47,0.00,,,0.00,VWS V13.01,2012-11-08 17:28:00,
2012-11-08 11:33:00,56.6,36.7,30.45,ENE,77,5.8,7.6,47,0.00,,,0.00,VWS V13.01,2012-11-08 17:33:00,
2012-11-08 11:38:00,56.5,37.0,30.45,East,94,3.1,3.1,48,0.00,,,0.00,VWS V13.01,2012-11-08 17:38:00,
2012-11-08 11:43:00,57.2,36.6,30.45,East,80,7.6,7.6,46,0.00,,,0.00,VWS V13.01,2012-11-08 17:43:00,
2012-11-08 11:48:00,57.4,36.8,30.42,SE,135,5.4,10.1,46,0.00,,,0.00,VWS V13.01,2012-11-08 17:48:00,
2012-11-08 11:53:00,57.4,37.3,30.42,SE,127,7.6,8.7,47,0.00,,,0.00,VWS V13.01,2012-11-08 17:53:00,
2012-11-08 11:58:00,57.5,37.5,30.42,ENE,71,6.3,6.3,47,0.00,,,0.00,VWS V13.01,2012-11-08 17:58:00,
2012-11-08 12:03:00,58.1,37.4,30.42,East,79,7.6,10.5,46,0.00,,,0.00,VWS V13.01,2012-11-08 18:03:00,
2012-11-08 12:08:00,57.7,37.1,30.42,SE,128,2.7,5.8,46,0.00,,,0.00,VWS V13.01,2012-11-08 18:08:00,
2012-11-08 12:13:00,57.7,37.7,30.42,SE,133,5.8,5.8,47,0.00,,,0.00,VWS V13.01,2012-11-08 18:13:00,
2012-11-08 12:18:00,58.3,37.6,30.42,East,93,6.3,8.3,46,0.00,,,0.00,VWS V13.01,2012-11-08 18:18:00,
2012-11-08 12:23:00,58.4,37.8,30.42,NE,54,10.1,10.1,46,0.00,,,0.00,VWS V13.01,2012-11-08 18:23:00,
2012-11-08 12:28:00,58.8,37.5,30.42,East,89,6.7,10.5,45,0.00,,,0.00,VWS V13.01,2012-11-08 18:28:00,
2012-11-08 12:33:00,58.6,37.9,30.42,East,84,10.1,10.1,46,0.00,,,0.00,VWS V13.01,2012-11-08 18:33:00,
2012-11-08 12:38:00,59.0,37.7,30.42,SSE,147,8.3,8.3,45,0.00,,,0.00,VWS V13.01,2012-11-08 18:38:00,
2012-11-08 12:43:00,59.3,38.0,30.42,ENE,76,12.8,12.8,45,0.00,,,0.00,VWS V13.01,2012-11-08 18:43:00,
2012-11-08 12:48:00,59.0,37.7,30.39,NE,56,8.1,8.1,45,0.00,,,0.00,VWS V13.01,2012-11-08 18:48:00,
2012-11-08 12:53:00,59.2,37.8,30.39,East,91,4.0,6.3,45,0.00,,,0.00,VWS V13.01,2012-11-08 18:53:00,
2012-11-08 12:58:00,59.3,38.0,30.39,East,79,5.8,6.3,45,0.00,,,0.00,VWS V13.01,2012-11-08 18:58:00,
2012-11-08 13:03:00,59.7,38.3,30.39,East,97,7.6,11.0,45,0.00,,,0.00,VWS V13.01,2012-11-08 19:03:00,
2012-11-08 13:08:00,60.1,38.7,30.39,ENE,73,3.6,6.3,45,0.00,,,0.00,VWS V13.01,2012-11-08 19:08:00,
2012-11-08 13:13:00,60.2,38.8,30.39,ENE,75,4.9,4.9,45,0.00,,,0.00,VWS V13.01,2012-11-08 19:13:00,
2012-11-08 13:18:00,60.2,38.8,30.39,North,3,3.6,7.6,45,0.00,,,0.00,VWS V13.01,2012-11-08 19:18:00,
2012-11-08 13:23:00,60.8,39.3,30.39,ESE,104,10.1,10.1,45,0.00,,,0.00,VWS V13.01,2012-11-08 19:23:00,
2012-11-08 13:28:00,60.8,39.3,30.39,East,83,5.4,8.1,45,0.00,,,0.00,VWS V13.01,2012-11-08 19:28:00,
2012-11-08 13:33:00,60.8,39.3,30.36,ENE,75,3.1,5.4,45,0.00,,,0.00,VWS V13.01,2012-11-08 19:33:00,
2012-11-08 13:38:00,61.3,39.8,30.36,East,97,8.1,8.1,45,0.00,,,0.00,VWS V13.01,2012-11-08 19:38:00,
2012-11-08 13:43:00,61.3,39.2,30.36,ESE,116,3.6,3.6,44,0.00,,,0.00,VWS V13.01,2012-11-08 19:43:00,
2012-11-08 13:48:00,61.5,40.0,30.36,East,88,4.0,5.8,45,0.00,,,0.00,VWS V13.01,2012-11-08 19:48:00,
2012-11-08 13:53:00,61.5,39.4,30.36,NE,56,8.3,10.1,44,0.00,,,0.00,VWS V13.01,2012-11-08 19:53:00,
2012-11-08 13:58:00,61.9,39.7,30.36,ESE,106,4.0,4.9,44,0.00,,,0.00,VWS V13.01,2012-11-08 19:58:00,
2012-11-08 14:03:00,62.2,40.6,30.36,ENE,74,6.3,6.3,45,0.00,,,0.00,VWS V13.01,2012-11-08 20:03:00,
2012-11-08 14:08:00,62.2,40.1,30.36,ESE,112,3.1,6.3,44,0.00,,,0.00,VWS V13.01,2012-11-08 20:08:00,
2012-11-08 14:13:00,62.2,40.1,30.36,ESE,118,3.6,4.0,44,0.00,,,0.00,VWS V13.01,2012-11-08 20:13:00,
2012-11-08 14:18:00,62.4,40.2,30.36,NE,43,4.9,6.3,44,0.00,,,0.00,VWS V13.01,2012-11-08 20:18:00,
2012-11-08 14:23:00,62.9,40.7,30.36,ENE,63,3.1,5.8,44,0.00,,,0.00,VWS V13.01,2012-11-08 20:23:00,
2012-11-08 14:28:00,63.3,41.0,30.36,ESE,108,6.3,6.3,44,0.00,,,0.00,VWS V13.01,2012-11-08 20:28:00,
2012-11-08 14:33:00,63.1,40.9,30.33,ESE,104,2.7,5.8,44,0.00,,,0.00,VWS V13.01,2012-11-08 20:33:00,
2012-11-08 14:38:00,63.3,41.0,30.33,SE,126,4.0,6.3,44,0.00,,,0.00,VWS V13.01,2012-11-08 20:38:00,
2012-11-08 14:43:00,63.7,40.8,30.33,East,89,5.8,5.8,43,0.00,,,0.00,VWS V13.01,2012-11-08 20:43:00,
2012-11-08 14:48:00,64.0,41.1,30.33,ESE,114,5.8,5.8,43,0.00,,,0.00,VWS V13.01,2012-11-08 20:48:00,
2012-11-08 14:53:00,63.8,40.9,30.33,ESE,115,4.0,7.6,43,0.00,,,0.00,VWS V13.01,2012-11-08 20:53:00,
2012-11-08 14:58:00,63.7,40.8,30.33,ESE,123,5.4,5.8,43,0.00,,,0.00,VWS V13.01,2012-11-08 20:58:00,
2012-11-08 15:03:00,63.7,40.8,30.33,East,92,6.3,7.6,43,0.00,,,0.00,VWS V13.01,2012-11-08 21:03:00,
2012-11-08 15:08:00,63.7,40.8,30.33,ESE,117,3.6,7.6,43,0.00,,,0.00,VWS V13.01,2012-11-08 21:08:00,
2012-11-08 15:13:00,63.7,40.8,30.33,ENE,59,5.8,8.1,43,0.00,,,0.00,VWS V13.01,2012-11-08 21:13:00,
2012-11-08 15:18:00,63.7,40.8,30.33,ESE,122,7.6,7.6,43,0.00,,,0.00,VWS V13.01,2012-11-08 21:18:00,
2012-11-08 15:23:00,63.7,40.8,30.33,ENE,68,3.6,3.6,43,0.00,,,0.00,VWS V13.01,2012-11-08 21:23:00,
2012-11-08 15:28:00,63.8,40.9,30.33,East,87,7.6,7.6,43,0.00,,,0.00,VWS V13.01,2012-11-08 21:28:00,
2012-11-08 15:33:00,63.7,40.8,30.33,East,79,4.9,6.3,43,0.00,,,0.00,VWS V13.01,2012-11-08 21:33:00,
2012-11-08 15:38:00,63.5,40.6,30.33,SSE,150,3.1,8.3,43,0.00,,,0.00,VWS V13.01,2012-11-08 21:38:00,
2012-11-08 15:43:00,63.3,40.5,30.33,ESE,107,3.6,7.6,43,0.00,,,0.00,VWS V13.01,2012-11-08 21:43:00,
2012-11-08 15:48:00,63.3,40.5,30.33,ENE,69,2.7,4.9,43,0.00,,,0.00,VWS V13.01,2012-11-08 21:48:00,
2012-11-08 15:53:00,63.3,40.5,30.33,NE,53,3.1,11.0,43,0.00,,,0.00,VWS V13.01,2012-11-08 21:53:00,
2012-11-08 15:58:00,63.1,40.3,30.33,NE,50,6.3,6.3,43,0.00,,,0.00,VWS V13.01,2012-11-08 21:58:00,
2012-11-08 16:03:00,63.1,40.3,30.33,ENE,63,9.2,9.2,43,0.00,,,0.00,VWS V13.01,2012-11-08 22:03:00,
2012-11-08 16:08:00,62.9,40.1,30.33,East,82,6.3,6.3,43,0.00,,,0.00,VWS V13.01,2012-11-08 22:08:00,
2012-11-08 16:13:00,62.9,40.1,30.33,East,101,5.4,5.4,43,0.00,,,0.00,VWS V13.01,2012-11-08 22:13:00,
2012-11-08 16:18:00,62.8,40.0,30.33,East,90,5.4,8.3,43,0.00,,,0.00,VWS V13.01,2012-11-08 22:18:00,
2012-11-08 16:23:00,62.6,39.8,30.33,East,79,3.1,5.8,43,0.00,,,0.00,VWS V13.01,2012-11-08 22:23:00,
2012-11-08 16:28:00,62.4,39.6,30.33,ENE,63,4.9,5.8,43,0.00,,,0.00,VWS V13.01,2012-11-08 22:28:00,
2012-11-08 16:33:00,62.4,39.6,30.33,ENE,77,3.1,4.9,43,0.00,,,0.00,VWS V13.01,2012-11-08 22:33:00,
2012-11-08 16:38:00,62.2,40.1,30.33,ESE,110,5.8,5.8,44,0.00,,,0.00,VWS V13.01,2012-11-08 22:38:00,
2012-11-08 16:43:00,61.9,39.7,30.33,NE,47,3.1,3.6,44,0.00,,,0.00,VWS V13.01,2012-11-08 22:43:00,
2012-11-08 16:48:00,61.7,39.6,30.33,ENE,66,5.4,5.4,44,0.00,,,0.00,VWS V13.01,2012-11-08 22:48:00,
2012-11-08 16:53:00,61.3,39.2,30.33,East,100,3.6,4.9,44,0.00,,,0.00,VWS V13.01,2012-11-08 22:53:00,
2012-11-08 16:58:00,61.3,39.2,30.33,NE,53,4.0,5.4,44,0.00,,,0.00,VWS V13.01,2012-11-08 22:58:00,
2012-11-08 17:03:00,61.0,38.9,30.33,ENE,76,3.6,3.6,44,0.00,,,0.00,VWS V13.01,2012-11-08 23:03:00,
2012-11-08 17:08:00,60.4,39.0,30.33,East,88,5.4,6.3,45,0.00,,,0.00,VWS V13.01,2012-11-08 23:08:00,
2012-11-08 17:13:00,60.2,38.8,30.33,East,88,3.6,4.0,45,0.00,,,0.00,VWS V13.01,2012-11-08 23:13:00,
2012-11-08 17:18:00,60.1,38.7,30.33,ENE,76,2.2,3.1,45,0.00,,,0.00,VWS V13.01,2012-11-08 23:18:00,
2012-11-08 17:23:00,59.5,38.2,30.33,ENE,66,5.4,5.8,45,0.00,,,0.00,VWS V13.01,2012-11-08 23:23:00,
2012-11-08 17:28:00,59.0,37.7,30.33,ENE,62,2.7,3.6,45,0.00,,,0.00,VWS V13.01,2012-11-08 23:28:00,
2012-11-08 17:33:00,58.8,37.5,30.33,ENE,70,2.7,2.7,45,0.00,,,0.00,VWS V13.01,2012-11-08 23:33:00,
2012-11-08 17:38:00,58.4,37.8,30.33,NE,53,2.7,2.7,46,0.00,,,0.00,VWS V13.01,2012-11-08 23:38:00,
2012-11-08 17:43:00,58.1,37.4,30.33,ENE,65,3.6,3.6,46,0.00,,,0.00,VWS V13.01,2012-11-08 23:43:00,
2012-11-08 17:48:00,57.9,37.8,30.33,NE,56,3.1,3.1,47,0.00,,,0.00,VWS V13.01,2012-11-08 23:48:00,
2012-11-08 17:53:00,57.5,37.5,30.33,NE,43,2.2,2.2,47,0.00,,,0.00,VWS V13.01,2012-11-08 23:53:00,
2012-11-08 17:57:00,57.4,37.8,30.33,NNE,24,3.6,3.6,48,0.00,,,0.00,VWS V13.01,2012-11-08 23:57:00,
2012-11-08 18:02:00,57.0,37.5,30.33,NE,37,2.7,3.6,48,0.00,,,0.00,VWS V13.01,2012-11-09 00:02:00,
2012-11-08 18:07:00,56.8,37.9,30.33,NE,35,3.1,3.1,49,0.00,,,0.00,VWS V13.01,2012-11-09 00:07:00,
2012-11-08 18:12:00,56.5,37.5,30.33,NE,47,2.7,2.7,49,0.00,,,0.00,VWS V13.01,2012-11-09 00:12:00,
2012-11-08 18:17:00,56.1,37.7,30.36,NE,36,2.7,3.1,50,0.00,,,0.00,VWS V13.01,2012-11-09 00:17:00,
2012-11-08 18:22:00,55.7,37.9,30.36,NE,39,2.2,2.7,51,0.00,,,0.00,VWS V13.01,2012-11-09 00:22:00,
2012-11-08 18:27:00,55.6,37.7,30.36,NE,54,2.2,2.7,51,0.00,,,0.00,VWS V13.01,2012-11-09 00:27:00,
2012-11-08 18:32:00,55.4,38.1,30.36,NE,51,2.7,2.7,52,0.00,,,0.00,VWS V13.01,2012-11-09 00:32:00,
2012-11-08 18:37:00,55.2,38.4,30.36,NNE,26,3.1,3.1,53,0.00,,,0.00,VWS V13.01,2012-11-09 00:37:00,
2012-11-08 18:42:00,55.0,38.7,30.36,NE,54,2.7,2.7,54,0.00,,,0.00,VWS V13.01,2012-11-09 00:42:00,
2012-11-08 18:47:00,54.8,38.5,30.33,NE,47,2.7,3.6,54,0.00,,,0.00,VWS V13.01,2012-11-09 00:47:00,
2012-11-08 18:52:00,54.8,39.0,30.33,ENE,57,3.6,3.6,55,0.00,,,0.00,VWS V13.01,2012-11-09 00:52:00,
2012-11-08 18:57:00,54.7,38.8,30.33,NE,53,2.7,3.1,55,0.00,,,0.00,VWS V13.01,2012-11-09 00:57:00,
2012-11-08 19:03:00,54.5,38.7,30.36,NE,46,2.2,2.7,55,0.00,,,0.00,VWS V13.01,2012-11-09 01:03:00,
2012-11-08 19:08:00,54.3,38.5,30.36,NE,37,2.7,3.1,55,0.00,,,0.00,VWS V13.01,2012-11-09 01:08:00,
2012-11-08 19:13:00,54.3,38.5,30.36,ENE,70,3.1,3.1,55,0.00,,,0.00,VWS V13.01,2012-11-09 01:13:00,
2012-11-08 19:18:00,54.1,38.3,30.36,East,101,2.2,2.7,55,0.00,,,0.00,VWS V13.01,2012-11-09 01:18:00,
2012-11-08 19:23:00,53.9,38.2,30.36,ENE,73,0.0,2.2,55,0.00,,,0.00,VWS V13.01,2012-11-09 01:23:00,
2012-11-08 19:28:00,53.8,38.5,30.36,ENE,60,2.2,3.1,56,0.00,,,0.00,VWS V13.01,2012-11-09 01:28:00,
2012-11-08 19:33:00,53.6,38.3,30.36,ENE,71,0.0,0.0,56,0.00,,,0.00,VWS V13.01,2012-11-09 01:33:00,
2012-11-08 19:38:00,53.6,38.3,30.36,ENE,58,2.2,3.1,56,0.00,,,0.00,VWS V13.01,2012-11-09 01:38:00,
2012-11-08 19:43:00,53.4,38.1,30.36,NE,50,2.7,2.7,56,0.00,,,0.00,VWS V13.01,2012-11-09 01:43:00,
2012-11-08 19:48:00,53.4,38.1,30.36,ENE,71,0.0,3.1,56,0.00,,,0.00,VWS V13.01,2012-11-09 01:48:00,
2012-11-08 19:53:00,53.2,38.4,30.36,NE,46,0.0,2.7,57,0.00,,,0.00,VWS V13.01,2012-11-09 01:53:00,
2012-11-08 19:58:00,53.0,38.2,30.36,NE,53,0.0,0.0,57,0.00,,,0.00,VWS V13.01,2012-11-09 01:58:00,
2012-11-08 20:03:00,52.9,38.1,30.36,ENE,61,0.0,0.0,57,0.00,,,0.00,VWS V13.01,2012-11-09 02:03:00,
2012-11-08 20:08:00,52.7,37.9,30.36,NE,39,0.0,0.0,57,0.00,,,0.00,VWS V13.01,2012-11-09 02:08:00,
2012-11-08 20:13:00,52.7,37.9,30.36,NE,48,0.0,0.0,57,0.00,,,0.00,VWS V13.01,2012-11-09 02:13:00,
2012-11-08 20:18:00,52.3,37.5,30.36,ENE,57,0.0,0.0,57,0.00,,,0.00,VWS V13.01,2012-11-09 02:18:00,
2012-11-08 20:23:00,52.1,37.8,30.36,NE,56,2.2,2.2,58,0.00,,,0.00,VWS V13.01,2012-11-09 02:23:00,
2012-11-08 20:28:00,52.0,37.7,30.36,NE,56,3.1,3.6,58,0.00,,,0.00,VWS V13.01,2012-11-09 02:28:00,
2012-11-08 20:33:00,52.0,37.7,30.33,NE,44,3.6,3.6,58,0.00,,,0.00,VWS V13.01,2012-11-09 02:33:00,
2012-11-08 20:38:00,52.0,37.7,30.33,NNE,30,2.7,4.0,58,0.00,,,0.00,VWS V13.01,2012-11-09 02:38:00,
2012-11-08 20:43:00,52.1,37.8,30.33,NE,55,2.7,2.7,58,0.00,,,0.00,VWS V13.01,2012-11-09 02:43:00,
2012-11-08 20:48:00,52.1,37.8,30.36,NE,50,0.0,2.7,58,0.00,,,0.00,VWS V13.01,2012-11-09 02:48:00,
2012-11-08 20:53:00,52.0,37.7,30.36,NE,55,0.0,0.0,58,0.00,,,0.00,VWS V13.01,2012-11-09 02:53:00,
2012-11-08 20:58:00,52.0,37.7,30.36,ENE,57,2.7,3.1,58,0.00,,,0.00,VWS V13.01,2012-11-09 02:58:00,
2012-11-08 21:03:00,52.0,37.7,30.36,NE,50,2.2,2.2,58,0.00,,,0.00,VWS V13.01,2012-11-09 03:03:00,
2012-11-08 21:08:00,52.0,37.7,30.36,NE,51,2.2,2.7,58,0.00,,,0.00,VWS V13.01,2012-11-09 03:08:00,
2012-11-08 21:13:00,51.8,37.5,30.36,NE,52,0.0,0.0,58,0.00,,,0.00,VWS V13.01,2012-11-09 03:13:00,
2012-11-08 21:18:00,51.6,37.3,30.36,ENE,57,2.7,2.7,58,0.00,,,0.00,VWS V13.01,2012-11-09 03:18:00,
2012-11-08 21:23:00,51.4,37.6,30.36,ENE,57,0.0,0.0,59,0.00,,,0.00,VWS V13.01,2012-11-09 03:23:00,
2012-11-08 21:28:00,51.1,37.2,30.36,ENE,73,0.0,0.0,59,0.00,,,0.00,VWS V13.01,2012-11-09 03:28:00,
2012-11-08 21:33:00,50.7,36.9,30.36,East,81,0.0,0.0,59,0.00,,,0.00,VWS V13.01,2012-11-09 03:33:00,
2012-11-08 21:38:00,50.7,36.9,30.36,East,81,0.0,0.0,59,0.00,,,0.00,VWS V13.01,2012-11-09 03:38:00,
2012-11-08 21:43:00,50.7,37.3,30.36,East,81,0.0,0.0,60,0.00,,,0.00,VWS V13.01,2012-11-09 03:43:00,
2012-11-08 21:48:00,50.7,37.3,30.36,NE,46,0.0,0.0,60,0.00,,,0.00,VWS V13.01,2012-11-09 03:48:00,
2012-11-08 21:53:00,50.5,37.2,30.36,East,79,0.0,0.0,60,0.00,,,0.00,VWS V13.01,2012-11-09 03:53:00,
2012-11-08 21:58:00,50.5,37.6,30.36,ENE,74,2.2,2.2,61,0.00,,,0.00,VWS V13.01,2012-11-09 03:58:00,
2012-11-08 22:03:00,50.5,37.6,30.36,NE,42,3.6,3.6,61,0.00,,,0.00,VWS V13.01,2012-11-09 04:03:00,
2012-11-08 22:08:00,50.5,37.6,30.36,ENE,63,0.0,2.7,61,0.00,,,0.00,VWS V13.01,2012-11-09 04:08:00,
2012-11-08 22:13:00,50.5,37.6,30.36,NE,55,2.2,2.7,61,0.00,,,0.00,VWS V13.01,2012-11-09 04:13:00,
2012-11-08 22:18:00,50.5,37.6,30.36,ENE,67,2.7,3.1,61,0.00,,,0.00,VWS V13.01,2012-11-09 04:18:00,
2012-11-08 22:23:00,50.5,37.6,30.36,NE,56,2.7,2.7,61,0.00,,,0.00,VWS V13.01,2012-11-09 04:23:00,
2012-11-08 22:28:00,50.5,37.6,30.36,NE,51,2.2,2.7,61,0.00,,,0.00,VWS V13.01,2012-11-09 04:28:00,
2012-11-08 22:33:00,50.5,37.6,30.36,NE,49,2.2,2.7,61,0.00,,,0.00,VWS V13.01,2012-11-09 04:33:00,
2012-11-08 22:38:00,50.5,37.6,30.36,NE,40,3.1,3.1,61,0.00,,,0.00,VWS V13.01,2012-11-09 04:38:00,
2012-11-08 22:43:00,50.5,37.6,30.36,NE,41,4.9,4.9,61,0.00,,,0.00,VWS V13.01,2012-11-09 04:43:00,
2012-11-08 22:48:00,50.5,37.6,30.36,NE,42,2.7,2.7,61,0.00,,,0.00,VWS V13.01,2012-11-09 04:48:00,
2012-11-08 22:53:00,50.3,37.8,30.36,NE,39,2.7,3.1,62,0.00,,,0.00,VWS V13.01,2012-11-09 04:53:00,
2012-11-08 22:57:00,50.0,37.5,30.36,NE,50,2.7,2.7,62,0.00,,,0.00,VWS V13.01,2012-11-09 04:57:00,
2012-11-08 23:00:00,50.0,37.5,30.36,ENE,60,3.1,3.1,62,0.00,,,0.00,VWS V13.01,2012-11-09 05:00:00,
2012-11-08 23:05:00,49.8,37.3,30.36,NE,44,0.0,2.2,62,0.00,,,0.00,VWS V13.01,2012-11-09 05:05:00,
2012-11-08 23:10:00,49.6,37.6,30.36,NE,52,2.7,3.1,63,0.00,,,0.00,VWS V13.01,2012-11-09 05:10:00,
2012-11-08 23:15:00,49.6,37.6,30.36,NE,49,3.1,3.1,63,0.00,,,0.00,VWS V13.01,2012-11-09 05:15:00,
2012-11-08 23:20:00,49.6,37.6,30.36,NE,49,2.7,2.7,63,0.00,,,0.00,VWS V13.01,2012-11-09 05:20:00,
2012-11-08 23:25:00,49.6,37.6,30.36,ENE,70,3.1,3.1,63,0.00,,,0.00,VWS V13.01,2012-11-09 05:25:00,
2012-11-08 23:30:00,49.4,37.8,30.33,ENE,62,3.1,3.1,64,0.00,,,0.00,VWS V13.01,2012-11-09 05:30:00,
2012-11-08 23:35:00,49.4,37.8,30.33,NE,50,2.7,3.1,64,0.00,,,0.00,VWS V13.01,2012-11-09 05:35:00,
2012-11-08 23:40:00,49.6,38.0,30.33,ENE,57,4.0,4.0,64,0.00,,,0.00,VWS V13.01,2012-11-09 05:40:00,
2012-11-08 23:45:00,49.6,37.6,30.33,ENE,70,3.6,4.0,63,0.00,,,0.00,VWS V13.01,2012-11-09 05:45:00,
2012-11-08 23:50:00,49.6,38.0,30.33,NE,39,2.7,2.7,64,0.00,,,0.00,VWS V13.01,2012-11-09 05:50:00,
2012-11-08 23:55:00,49.6,38.0,30.33,ENE,70,2.7,3.1,64,0.00,,,0.00,VWS V13.01,2012-11-09 05:55:00,